カタログに戻る

SERT 2

運用中科学SSO
NORAD 4327·PAYLOAD·🇺🇸 United States

打ち上げ Feb 4, 1970 から Vandenberg Space Force Base

Loading…

次のパス (今後24時間)

TLE

最新Source: Space-Track

元期: Sep 14, 2026, 07:14 UTC

1 04327U 70009A   26257.30183936  .00000018  00000-0  80520-4 0  9995
2 04327  99.2867 190.2385 0005670  49.9412 114.9195 13.58745809805502

AllMySatでSERT 2をリアルタイム追跡

Download on the App Store